ROMMA est une association bénévole à but non lucratif. Votre soutien est indispensable : ADHERER à ROMMA ou FAIRE un DON

Briord - (01, Ain)

Bugey (281 m)   Longitude: 05° 29' 13" E   Latitude: 45° 46' 37" N Station partenaire n°15
 

Détail journalier du     <<     >>

Température Precipitation Humidité Pression Vent Dir Rafale Dir. rafale Ensol.
Heure (°C) (mm) (%) (hPa) (km/h) (km/h) (min)
01:00 30.404510136ESE24ESE0
02:00 26.705210121---18SSE0
03:00 24.7059101202SE0
04:00 23.1059101302SE0
05:00 22.1065101200---0
06:00 21.8070101200---0
07:00 21.1072101200---0
08:00 20.7074101200---0
09:00 21.1075101205NE0
10:00 22.0074101205NE0
11:00 26.2064101203ESE0
12:00 28.805210111---6O0
13:00 29.904810112ONO13ONO0
14:00 31.704110103ONO15ONO35
15:00 32.803910094ONO18OSO60
16:00 33.703910095SE18SO60
17:00 35.703110083S19OSO60
18:00 35.702810074ONO23SO60
19:00 36.402710064ONO21O60
20:00 35.902810055ONO21ONO60
21:00 34.803110055ONO24O50
22:00 33.603410053ONO23O0
23:00 27.205510077ONO37O0
minuit 24.006810096NO34ONO0

Graphique du 26-07-2019

 

Serveur OMMA